Wind_Speed
16 16 16 14 15 9 8 8 10 11 9 8 8 7 7 9 10 12 16 19 22 25 28 30 32 34 36 39 41 43 42 40 42 44 43 43 45 47 46 44 45 52 54 54 52
15 14 14 15 16 16 10 9 8 7 6 6 6 6 7 9 11 14 16 18 21 24 27 29 31 33 35 38 41 41 42 42 43 47 47 47 47 47 52 53 51 49 56 60 58
13 14 15 14 13 14 15 11 6 4 2 3 3 4 7 10 13 15 16 18 21 23 26 27 30 34 35 37 40 42 43 44 45 46 48 47 47 48 50 53 56 55 55 60 60
11 12 13 14 14 13 11 10 9 8 5 6 9 10 13 14 15 17 16 18 22 24 26 27 30 32 35 38 41 42 42 46 47 48 49 50 49 49 51 52 54 56 59 62 64
14 13 13 13 14 14 14 12 10 10 9 8 9 11 14 19 21 21 20 22 23 25 28 30 32 33 36 38 40 43 45 47 48 49 49 52 53 53 54 58 59 57 57 62 65
16 15 15 15 15 14 14 15 15 15 15 16 17 18 18 18 24 27 26 27 28 30 32 35 37 39 40 41 43 45 47 46 47 48 52 54 54 57 54 61 65 65 62 60 65
15 16 16 16 16 16 16 17 17 17 18 20 20 22 25 25 25 27 29 31 34 37 39 40 43 45 47 46 50 52 54 53 50 54 59 61 60 58 59 59 63 69 71 68 68
16 16 16 16 17 17 17 18 18 19 21 22 24 26 26 26 28 30 32 36 40 43 45 48 51 52 54 52 53 57 57 57 54 59 59 63 65 60 62 64 64 63 68 74 72
14 15 16 16 17 18 18 19 20 21 24 25 25 27 28 28 30 34 37 40 44 47 48 50 52 52 53 55 58 58 63 64 61 56 58 62 67 63 60 63 65 65 66 68 74
17 17 17 18 19 20 22 23 23 23 25 27 28 29 30 32 34 36 39 41 42 44 45 46 49 51 52 54 59 57 59 61 58 44 51 55 60 57 55 59 63 66 69 70 67
20 21 21 21 21 20 24 27 29 29 29 28 30 30 33 34 33 35 36 37 37 34 33 38 39 42 44 45 48 50 50 47 39 36 45 45 51 49 45 49 53 58 62 66 70
22 21 21 23 24 26 26 26 26 29 28 28 30 31 31 28 33 34 35 34 33 33 34 35 36 35 34 32 29 31 33 30 28 33 40 40 38 31 38 48 55 61 63 64 64
23 24 26 26 26 26 28 29 28 26 28 29 28 29 27 28 29 32 32 33 36 33 31 33 33 34 33 29 26 29 32 29 28 30 33 40 32 32 35 40 47 54 64 70 71
25 25 26 27 29 29 30 30 30 29 28 28 32 31 29 29 27 31 34 33 34 31 32 30 33 34 31 32 30 28 25 30 34 35 33 38 36 27 30 34 40 38 40 43 52
25 25 27 30 31 31 30 31 33 31 35 33 36 32 31 25 26 33 35 35 34 31 29 27 30 33 33 31 33 33 34 35 38 38 39 40 41 21 20 25 29 35 35 32 34
26 27 29 33 31 31 30 32 33 35 34 34 35 33 30 34 36 35 36 39 33 28 26 24 28 34 35 30 31 38 40 41 43 42 44 36 38 23 21 20 22 27 28 29 31
28 28 30 30 29 30 31 33 33 33 33 30 28 30 32 31 34 35 37 34 26 25 20 20 24 33 35 40 35 34 38 43 44 40 43 39 45 34 24 28 38 32 34 32 33
29 29 31 28 27 27 30 33 32 31 29 29 27 30 32 30 31 33 37 29 23 25 24 22 15 22 30 38 38 35 36 36 46 44 42 40 42 34 36 31 33 37 34 34 34
30 30 29 27 27 26 29 31 30 29 29 28 29 30 31 32 35 34 34 25 22 22 25 28 16 17 28 33 40 36 37 36 43 43 49 47 39 38 37 36 33 35 38 35 32
29 30 26 27 27 27 30 30 30 29 29 29 32 33 34 32 35 33 27 24 24 22 23 28 26 18 23 28 33 39 40 35 35 44 49 51 49 44 43 43 40 38 35 38 38
32 29 27 27 27 28 29 30 32 33 33 33 32 33 35 34 33 33 28 26 24 25 26 28 26 19 23 33 33 37 35 36 40 43 49 56 54 45 47 43 45 41 37 36 39
33 27 27 28 28 28 30 32 34 36 35 35 32 34 36 38 33 30 29 29 28 28 28 29 29 25 25 31 34 33 33 34 38 39 46 53 56 51 53 56 56 48 45 36 38
27 27 27 28 28 29 31 32 33 34 34 34 34 35 37 38 39 33 31 28 29 27 27 27 28 31 28 32 33 38 39 38 40 45 45 49 50 48 45 39 51 50 50 46 39
23 24 28 28 28 29 30 31 32 32 33 35 34 36 38 36 38 39 37 33 27 27 26 29 26 30 33 35 38 41 39 35 36 41 42 47 45 40 39 41 40 43 49 54 50
25 26 27 28 29 30 30 30 32 33 34 37 32 35 38 40 37 35 34 27 21 25 28 28 25 29 30 32 34 37 38 35 38 41 42 45 47 42 42 38 38 38 35 39 40
26 27 28 29 31 32 32 32 33 34 36 36 36 34 35 39 39 40 37 27 20 24 26 27 26 27 22 29 34 39 43 44 43 41 35 38 36 39 39 36 33 30 31 33 40
28 28 29 29 32 32 32 33 35 36 35 38 38 38 36 37 38 38 34 30 25 24 25 28 29 30 26 32 35 41 46 44 37 32 33 37 35 30 29 30 29 29 29 28 34
Wind_Direction
55 61 62 60 60 81 90 120 139 136 141 148 156 171 190 209 226 237 244 248 249 250 251 253 252 252 253 252 251 250 251 250 250 250 248 244 237 235 233 228 231 232 238 245 246
41 45 50 54 55 56 76 100 111 119 135 147 166 184 212 233 240 242 242 247 251 252 254 256 257 257 258 258 258 258 256 255 254 254 251 251 247 240 238 235 230 230 239 243 246
30 31 34 41 45 52 52 52 53 65 82 146 187 232 251 254 250 253 259 257 257 257 257 258 258 257 256 256 258 258 259 258 258 257 256 252 252 252 249 246 242 235 236 244 245
14 18 20 23 27 32 34 39 39 31 3 314 300 296 290 284 277 270 267 265 268 270 268 267 266 264 261 259 258 259 258 257 257 257 256 255 250 246 248 250 249 245 239 241 248
3 2 2 5 5 8 9 9 358 345 335 321 320 318 298 281 280 275 278 279 282 280 275 274 274 273 268 265 262 261 259 260 260 260 259 257 255 248 241 242 243 245 242 239 243
357 354 350 349 349 348 344 341 337 335 326 315 308 308 306 295 280 278 277 280 283 284 283 281 279 276 273 271 268 267 266 264 264 264 262 260 259 258 249 239 240 238 237 232 236
353 350 347 344 340 339 332 327 321 323 318 312 306 302 302 298 290 285 281 281 282 286 285 284 283 281 278 275 273 272 270 271 270 266 266 265 261 262 260 252 244 241 237 235 225
349 347 345 342 339 335 332 326 321 316 311 308 304 301 299 297 295 292 287 283 284 287 289 288 287 287 286 285 280 279 277 272 267 269 268 266 263 261 260 258 254 245 244 238 234
348 346 344 341 337 332 326 320 318 315 312 308 307 305 302 298 293 290 287 286 286 287 288 288 287 288 287 285 282 280 277 275 272 266 265 265 266 263 258 258 256 251 245 241 238
347 344 343 338 335 330 328 323 320 318 316 313 310 304 299 296 293 292 290 289 291 295 296 294 294 294 293 290 287 281 277 275 274 265 264 262 263 262 258 255 254 253 250 242 236
344 339 336 333 332 329 326 324 321 317 312 309 305 300 301 303 299 298 298 299 296 296 295 296 300 303 302 298 291 286 279 273 273 269 264 261 264 265 267 265 261 257 253 249 240
337 337 338 335 330 327 325 321 318 317 314 317 313 311 313 314 304 297 300 298 302 302 304 307 305 305 307 315 313 299 287 281 272 265 261 263 266 272 265 261 259 256 256 255 252
340 336 335 335 332 331 328 323 323 324 325 318 315 315 311 301 301 303 305 309 312 308 309 310 308 310 312 311 304 292 287 285 281 265 270 272 269 273 268 266 266 270 263 253 250
338 336 336 334 331 330 330 329 327 325 324 321 316 318 314 312 314 309 313 314 314 307 309 310 307 307 307 306 301 300 289 287 285 285 286 280 278 274 276 283 273 275 274 268 259
334 333 331 331 331 332 332 329 329 330 327 325 322 325 318 311 312 314 317 320 313 307 307 309 309 307 306 304 297 292 283 278 281 281 280 276 283 283 292 265 279 276 274 273 267
330 331 329 330 330 329 329 330 332 330 335 332 326 325 322 318 318 320 322 322 313 304 305 307 311 308 305 300 293 288 284 284 285 284 278 284 281 265 280 276 284 283 282 279 278
325 328 328 327 326 325 328 331 330 335 333 332 328 323 320 321 322 322 323 319 308 302 301 308 314 313 312 307 305 299 301 297 292 285 285 282 274 281 261 267 281 274 267 274 275
321 323 323 323 322 327 328 326 331 337 338 334 328 330 330 325 327 327 325 316 307 304 301 300 305 305 304 306 306 308 302 297 294 295 293 283 276 280 277 276 270 268 265 262 261
317 320 319 317 319 321 323 324 333 335 338 337 334 332 332 331 331 332 326 318 305 302 298 304 312 312 306 304 305 310 307 304 296 295 291 292 285 277 275 276 272 266 265 263 257
313 315 310 312 314 318 321 327 329 333 336 340 339 335 332 331 338 336 323 315 310 307 306 308 311 316 307 305 309 309 310 307 300 292 290 289 287 283 283 277 270 265 256 260 257
311 308 305 310 310 318 323 324 329 335 336 337 335 333 333 334 340 336 323 311 306 303 307 309 316 323 319 313 316 308 305 300 294 292 291 294 292 292 287 281 277 274 267 260 264
307 303 304 308 308 313 321 323 326 331 333 335 331 329 333 334 339 335 321 303 301 301 307 313 316 313 321 315 313 312 315 312 305 297 286 285 291 282 277 276 282 278 270 261 259
299 296 300 306 310 314 318 323 327 330 332 334 332 329 332 332 331 337 326 309 294 301 305 311 320 313 321 322 320 325 323 312 301 297 300 291 290 286 279 264 269 273 272 275 276
295 299 304 307 309 312 317 320 324 328 330 332 334 331 329 331 333 333 334 317 296 300 305 309 316 319 326 326 328 329 322 308 301 301 306 299 297 289 284 275 269 270 271 268 269
296 300 305 310 315 314 316 319 323 326 326 326 335 328 327 328 331 330 332 312 309 306 307 309 315 319 325 322 330 331 328 320 310 307 301 299 287 286 283 284 282 277 271 260 260
300 304 308 310 315 315 316 318 321 323 324 324 328 330 329 327 328 333 334 313 316 309 306 308 310 315 329 321 329 334 333 327 321 317 309 304 305 285 285 291 288 279 261 255 249
303 300 303 307 311 312 313 314 316 322 321 322 324 327 331 326 327 328 330 319 311 310 307 308 310 316 331 325 335 333 337 330 332 328 319 318 311 295 282 288 289 286 262 245 243
Height
5838 5836 5834 5833 5831 5829 5828 5828 5829 5830 5831 5832 5833 5834 5834 5834 5835 5836 5838 5839 5840 5840 5841 5841 5841 5841 5840 5840 5840 5841 5842 5845 5846 5845 5850 5852 5853 5854 5856 5859 5859 5858 5854 5856 5857
5839 5837 5836 5834 5832 5830 5830 5830 5830 5830 5831 5831 5832 5832 5833 5833 5833 5834 5836 5836 5836 5836 5836 5835 5836 5835 5834 5833 5832 5832 5834 5835 5836 5834 5837 5840 5843 5847 5846 5846 5849 5851 5846 5844 5848
5840 5838 5836 5835 5833 5832 5831 5830 5830 5830 5831 5832 5831 5831 5831 5831 5832 5831 5831 5831 5831 5830 5830 5829 5828 5828 5827 5826 5825 5825 5825 5825 5826 5825 5826 5830 5834 5836 5838 5840 5840 5843 5842 5835 5838
5839 5838 5837 5835 5833 5832 5832 5831 5830 5830 5829 5829 5828 5828 5827 5826 5827 5826 5826 5825 5824 5823 5822 5821 5820 5820 5818 5817 5815 5815 5815 5813 5813 5813 5814 5816 5820 5824 5826 5827 5828 5831 5834 5830 5828
5837 5837 5836 5835 5833 5831 5830 5829 5828 5828 5827 5827 5825 5825 5824 5822 5820 5820 5819 5818 5816 5815 5814 5812 5811 5810 5808 5807 5805 5803 5802 5802 5802 5802 5801 5801 5802 5807 5812 5812 5813 5815 5820 5822 5820
5836 5835 5833 5832 5831 5830 5829 5827 5827 5825 5824 5822 5821 5820 5820 5819 5815 5813 5812 5810 5808 5806 5803 5802 5800 5798 5796 5795 5793 5791 5790 5790 5790 5788 5785 5785 5787 5786 5795 5794 5795 5799 5801 5807 5808
5836 5834 5832 5830 5828 5827 5825 5824 5823 5822 5820 5817 5816 5815 5813 5811 5807 5804 5803 5802 5798 5795 5793 5790 5787 5784 5783 5781 5778 5776 5776 5775 5776 5772 5769 5767 5773 5774 5773 5776 5780 5782 5785 5787 5793
5835 5833 5831 5829 5826 5824 5823 5820 5819 5817 5815 5813 5811 5809 5807 5803 5800 5797 5794 5791 5787 5784 5780 5776 5772 5769 5766 5764 5761 5758 5757 5757 5757 5753 5752 5747 5756 5760 5756 5755 5761 5768 5770 5775 5777
5835 5832 5829 5827 5824 5821 5819 5817 5815 5813 5810 5807 5805 5801 5799 5796 5793 5789 5785 5781 5777 5773 5769 5764 5760 5756 5751 5747 5743 5739 5736 5735 5741 5736 5734 5730 5735 5737 5740 5738 5741 5745 5751 5755 5762
5833 5830 5828 5825 5822 5819 5816 5812 5810 5808 5805 5800 5797 5795 5791 5788 5784 5781 5776 5772 5768 5762 5756 5751 5745 5740 5735 5730 5726 5722 5718 5716 5719 5726 5714 5714 5715 5718 5722 5722 5722 5722 5726 5734 5743
5830 5828 5825 5822 5818 5815 5812 5808 5803 5802 5797 5794 5790 5786 5781 5779 5774 5769 5764 5761 5757 5753 5748 5742 5736 5730 5724 5717 5710 5704 5703 5700 5705 5706 5696 5700 5695 5705 5709 5703 5702 5703 5705 5709 5721
5826 5823 5821 5818 5814 5810 5806 5803 5799 5794 5790 5785 5781 5777 5774 5769 5762 5757 5756 5751 5746 5742 5736 5731 5727 5723 5716 5708 5702 5697 5694 5696 5697 5694 5687 5688 5689 5697 5694 5690 5687 5686 5688 5691 5698
5823 5819 5815 5812 5808 5805 5800 5796 5791 5788 5784 5779 5775 5772 5769 5763 5757 5751 5746 5740 5735 5731 5727 5722 5717 5710 5704 5700 5697 5692 5689 5689 5686 5685 5684 5678 5681 5681 5682 5672 5671 5672 5669 5673 5677
5819 5815 5810 5807 5804 5798 5794 5788 5784 5781 5778 5775 5769 5765 5760 5754 5751 5743 5737 5735 5729 5724 5718 5713 5707 5702 5699 5695 5690 5686 5685 5681 5678 5676 5675 5669 5668 5677 5669 5664 5661 5658 5656 5655 5655
5815 5810 5806 5801 5796 5792 5788 5783 5778 5774 5770 5766 5759 5755 5749 5747 5744 5736 5730 5726 5720 5715 5711 5706 5700 5694 5691 5688 5683 5680 5676 5673 5670 5667 5664 5660 5657 5663 5658 5655 5652 5650 5647 5646 5645
5810 5806 5801 5796 5791 5786 5781 5777 5773 5769 5762 5757 5750 5747 5744 5736 5732 5727 5722 5716 5712 5708 5703 5699 5695 5688 5684 5681 5676 5670 5667 5665 5661 5658 5652 5656 5651 5651 5652 5648 5646 5644 5641 5639 5639
5805 5801 5796 5792 5787 5782 5777 5773 5770 5764 5759 5755 5749 5743 5737 5733 5726 5720 5715 5710 5705 5701 5698 5695 5691 5682 5677 5671 5669 5665 5659 5652 5649 5648 5644 5644 5637 5641 5646 5643 5639 5637 5635 5634 5632
5800 5796 5791 5788 5784 5779 5774 5770 5765 5760 5755 5749 5745 5738 5732 5727 5722 5714 5707 5702 5698 5694 5690 5689 5690 5682 5674 5664 5661 5662 5656 5650 5637 5635 5633 5632 5626 5631 5631 5631 5628 5626 5626 5625 5624
5795 5791 5787 5783 5780 5776 5772 5766 5761 5757 5752 5746 5740 5735 5730 5722 5716 5709 5701 5696 5694 5690 5686 5680 5682 5678 5670 5664 5654 5652 5647 5642 5631 5628 5618 5618 5619 5619 5619 5618 5617 5615 5614 5615 5616
5790 5785 5782 5778 5774 5771 5767 5762 5757 5752 5747 5741 5734 5729 5723 5718 5711 5703 5695 5691 5688 5684 5680 5677 5670 5672 5665 5658 5650 5642 5638 5633 5627 5616 5608 5603 5602 5603 5604 5602 5602 5603 5604 5605 5605
5784 5781 5775 5772 5769 5765 5761 5757 5752 5747 5741 5736 5729 5724 5718 5712 5706 5699 5692 5686 5682 5678 5675 5670 5665 5664 5657 5649 5647 5639 5632 5626 5618 5610 5600 5591 5588 5589 5589 5591 5590 5590 5593 5594 5594
5777 5775 5771 5767 5764 5760 5756 5751 5747 5741 5736 5731 5725 5719 5712 5704 5701 5694 5688 5679 5675 5671 5668 5663 5658 5655 5653 5645 5639 5633 5625 5617 5609 5604 5594 5586 5573 5581 5580 5576 5576 5576 5576 5579 5581
5771 5767 5765 5762 5758 5754 5750 5745 5741 5736 5730 5726 5719 5714 5708 5700 5693 5689 5681 5675 5669 5665 5661 5658 5654 5646 5646 5641 5631 5624 5617 5608 5599 5590 5585 5575 5570 5568 5569 5566 5560 5559 5563 5565 5567
5767 5763 5759 5755 5752 5749 5744 5740 5735 5730 5725 5720 5715 5709 5703 5698 5689 5681 5674 5667 5662 5659 5656 5651 5649 5642 5636 5629 5621 5615 5608 5599 5590 5581 5573 5563 5556 5557 5553 5548 5546 5547 5547 5548 5551
5760 5756 5752 5749 5746 5742 5739 5735 5730 5726 5721 5715 5711 5703 5697 5691 5686 5678 5672 5662 5657 5654 5649 5646 5643 5636 5632 5624 5618 5611 5600 5593 5583 5573 5561 5554 5544 5544 5538 5536 5535 5533 5533 5534 5537
5752 5751 5746 5743 5740 5735 5732 5729 5724 5720 5714 5710 5705 5699 5692 5686 5679 5671 5665 5658 5655 5651 5645 5641 5637 5632 5630 5621 5614 5602 5591 5581 5572 5561 5550 5542 5536 5530 5527 5524 5520 5518 5519 5520 5523
5745 5744 5739 5737 5733 5729 5725 5721 5717 5712 5709 5701 5697 5692 5687 5681 5675 5667 5661 5653 5650 5645 5640 5636 5629 5625 5622 5614 5606 5598 5585 5571 5563 5553 5542 5535 5528 5521 5519 5515 5512 5508 5505 5509 5513